Content
SEND FEEDBACK

Daily
Averages
Monthly
Summary
United States of America

SEXTONVILLE, WISCONSIN


Home > North America > United States > Wisconsin
Elevation: 855 feet     Latitude: 43 19N     Longitude: 090 22W

WEATHER
 
SELECT A DAY
Number of Records: 179,070;   Date Range: 1/1/95 - 9/30/14
 
SHARE

PRINT THIS DATA

[ ← Previous Day ]
WEATHER ALMANAC - FEBRUARY 13, 2013
[ Next Day → ]
[ °C ]   °F
Weather ElementAverageHighLow
Temperature27.9 °F37.9 °F (2:56 pm)12.9 °F (5:56 am)
Dewpoint21.7 °F30.9 °F (11:56 pm)9 °F (5:56 am)
Humidity78.3 %92 % (8:56 am)62 % (12:56 pm)
Barometer29.74 in29.84 in (1:56 am)29.64 in (11:56 pm)
Wind Speed1.7 mph6.9 mph (2:56 pm)
Weather ElementAverage
Visibility7.1 mi
Wind DirectionE (84.8 °)

Weather ElementTotal
Precipitation---
Heating Degree Days39.6 (Base 65)
Averaged from 23 records on February 13, 2013
WEATHER CONDITIONS BREAKOUT
WIND DIRECTION BREAKOUT
WEATHER BY HOUR - FEBRUARY 13, 2013
[ °C ]   °F
Local TimeTemperatureDewpointHumidityBarometerVisibilityWind DirectionWind SpeedGust SpeedPrecipitationEventsConditions
1:56 AM21.0 °F18.0 °F88 %29.84 in5.0 miCalmClear
2:56 AM18.0 °F14.0 °F84 %29.82 in5.0 miCalmClear
3:56 AM16.0 °F12.9 °F88 %29.81 in5.0 miCalmClear
4:56 AM16.0 °F12.0 °F84 %29.80 in5.0 miCalmClear
5:56 AM12.9 °F9.0 °F84 %29.78 in5.0 miWSW (250°)3.5 mphPartly Cloudy
6:56 AM14.0 °F10.0 °F84 %29.79 in5.0 miWSW (250°)3.5 mphPartly Cloudy
7:56 AM15.1 °F12.0 °F88 %29.79 in4.0 miCalmPartly Cloudy
8:56 AM18.0 °F16.0 °F92 %29.78 in3.0 miWest (270°)3.5 mphClear
9:56 AM24.1 °F21.0 °F88 %29.77 in4.0 miCalmPartly Cloudy
10:56 AM30.0 °F24.1 °F79 %29.75 in6.0 miCalmHaze
11:56 AM32.0 °F24.1 °F73 %29.74 in7.0 miCalmClear
12:56 PM36.0 °F24.1 °F62 %29.72 in10.0 miWest (280°)4.6 mphClear
1:56 PM37.0 °F27.0 °F67 %29.71 in10.0 miSSW (210°)3.5 mphClear
2:56 PM37.9 °F26.1 °F62 %29.72 in10.0 miWSW (250°)6.9 mphMostly Cloudy
3:56 PM37.9 °F26.1 °F62 %29.72 in10.0 miSW (230°)5.8 mphOvercast
4:56 PM37.0 °F26.1 °F65 %29.73 in10.0 miCalmOvercast
5:56 PM36.0 °F27.0 °F70 %29.73 in10.0 miCalmOvercast
6:56 PM34.0 °F27.0 °F75 %29.72 in9.0 miCalmOvercast
7:56 PM35.1 °F27.0 °F72 %29.73 in10.0 miCalmOvercast
8:56 PM33.1 °F28.0 °F82 %29.70 in10.0 miESE (110°)3.5 mphOvercast
9:56 PM33.1 °F28.0 °F82 %29.68 in8.0 miCalmOvercast
10:56 PM34.0 °F28.9 °F82 %29.66 in7.0 miEast (100°)4.6 mph0.00 inOvercast
11:56 PM34.0 °F30.9 °F89 %29.64 in6.0 miCalm0.00 inOvercast
Hourly data recorded from KLNR, located miles away from Sextonville, Wisconsin







STORIES FROM OUR PARTNERS